223  
ASUS43 KGRB 010611  
RWRGRB  
 
NORTH-CENTRAL AND NORTHEAST WISCONSIN REGIONAL WEATHER ROUNDUP  
NATIONAL WEATHER SERVICE GREEN BAY WI  
100 AM CDT MON MAY 01 2017  
 
WIZ005-009-010>012-018-019-010700-  
NORTH CENTRAL WISCONSIN  
 
CITY SKY/WX TMP DP RH WIND PRES REMARKS
 
IRONWOOD LGT RAIN 40 30 67 E12 29.72F  
MANITOWISH WTR CLOUDY 38 34 84 E13G21 29.68F  
ARBOR VITAE LGT RAIN 39 35 85 E10G18 29.66F  
EAGLE RIVER LGT RAIN 37 34 87 E14G24 29.68F  
LAND O LAKES CLOUDY 38 33 82 E12 29.71F  
RHINELANDER CLOUDY 38 36 92 E15G25 29.68F  
PHILLIPS LGT RAIN 38 37 96 E12G20 29.64F  
ANTIGO RAIN 34 34 100 E16G26 29.65F  
TOMAHAWK RAIN 36 34 92 E12G21 29.66F  
MERRILL LGT RAIN 36 36 99 E16G23 29.63F  

 
 
WIZ013-073-010700-  
NORTHEAST WISCONSIN  
 
CITY SKY/WX TMP DP RH WIND PRES REMARKS
 
IRON MOUNTAIN CLOUDY 38 33 82 MISG 29.74F  
MARINETTE RAIN 38 35 89 E18 29.74F  
OCONTO CLOUDY 37 35 94 E10G16 29.71F  

 
 
WIZ017-030-035>037-045-010700-  
CENTRAL WISCONSIN  
 
CITY SKY/WX TMP DP RH WIND PRES REMARKS
 
MEDFORD RAIN 36 34 93 E21G29 29.57F  
WAUSAU RAIN 36 34 92 E17G23 29.61F FOG  
MOSINEE LGT RAIN 34 34 100 NE21G28 29.60F  
MARSHFIELD RAIN 36 33 89 E18G30 29.57F FOG  
WISC RAPIDS LGT RAIN 37 36 96 E16G30 29.57F  
STEVENS POINT LGT RAIN 34 34 100 E20G25 29.60F  
WAUPACA RAIN 39 37 93 NE16G24 29.59F  
SHAWANO RAIN 39 36 89 NE21G26 29.66F  
CLINTONVILLE HVY RAIN 36 34 93 NE17G25 29.64F  
WAUTOMA LGT RAIN 37 36 96 NE18G25 29.57F  

 
 
WIZ038-039-048-051-010700-  
FOX VALLEY  
 
CITY SKY/WX TMP DP RH WIND PRES REMARKS
 
NWS GREEN BAY LGT RAIN 39 38 96 NE20 29.66F FOG  
APPLETON LGT RAIN 36 36 100 NE20G29 29.58F  
OSHKOSH LGT RAIN 39 36 89 E17G30 29.59F  
FOND DU LAC RAIN 40 36 86 NE16G30 29.57F  

 
 
WIZ022-050-052-010700-  
EAST CENTRAL WISCONSIN  
 
CITY SKY/WX TMP DP RH WIND PRES REMARKS
 
EPHRAIM LGT RAIN 36 36 100 E17G25 29.70F  
WASHINGTON ISL CLOUDY 37 34 91 E14G21 29.74F  
STURGEON BAY RAIN 37 35 92 NE16G24 29.69F  
MANITOWOC CLOUDY 38 37 97 NE10 29.65F  
SHEBOYGAN LGT RAIN 39 37 92 NE22 29.59F  

 
 
LMZ563-521-522-541>543-010700-  
LAKESHORE  
 
STATION/POSITION TIME TEMP WIND PRES VSBY WAVE
 
AIR SEA DIR/SP/G HT/PER  
(UTC) (F) (DEG/KT/KT) (MB) (MI) (FT/S)  
SHEBOYGAN LKSHOR 0600 39 20/ 24/ 27 1002.6F  
KEWAUNEE LKSHORE 0542 50/ 14/ 22 1004.3F  
NORTHPORT PIER 0601 38 70/ 20 1006.8  
N MID LAKE BUOY 0550 37 37 80/ 17/ 21 1008.7F 4/ 5  
CHAMBERS ISLAND 0540 38 50/ 17/ 25 1006.8F  
MENOMINEE LKSHOR 0542 50/ 20/ 26 1006.3F  

 
 
 
CLICK HERE TO GO TO PREVIOUS BULLETINS.

The Nexlab WI Page Main Text Page